EW5146 Weather Reports


time (UTC)temp
C
wind
direction
speed
KPH
gust
KPH
rain 1hr
cm
rain 24hr
cm
rain mn
cm
humidity
%
barometer
mb
20260505072550 17 250 0.0 6.4 0.00 0.00 0.00 65 1005.7
20260505072046 17 0 0.0 3.2 0.00 0.00 0.00 65 1005.6
20260505071554 17 0 0.0 3.2 0.00 0.00 0.00 65 1005.6
20260505071048 17 250 0.0 3.2 0.00 0.00 0.00 65 1005.6
20260505070547 17 0 0.0 3.2 0.00 0.00 0.00 65 1005.6
20260505070104 17 0 1.6 4.8 0.00 0.00 0.00 65 1005.6
20260505065548 17 0 0.0 4.8 0.00 0.00 0.00 65 1005.6
20260505065048 17 0 0.0 4.8 0.00 0.00 0.00 64 1005.5
20260505064557 18 293 0.0 4.8 0.00 0.00 0.00 64 1005.4
20260505064048 18 264 1.6 4.8 0.00 0.00 0.00 64 1005.5
20260505063548 18 0 0.0 3.2 0.00 0.00 0.00 64 1005.5
20260505063056 18 0 0.0 4.8 0.00 0.00 0.00 64 1005.6
20260505062548 18 236 0.0 4.8 0.00 0.00 0.00 64 1005.6
20260505062052 18 236 0.0 4.8 0.00 0.00 0.00 64 1005.5
20260505061625 18 225 0.0 6.4 0.00 0.00 0.00 64 1005.6
20260505061049 18 0 1.6 6.4 0.00 0.00 0.00 64 1005.5
20260505060548 18 315 0.0 6.4 0.00 0.00 0.00 64 1005.3
20260505060100 18 0 1.6 6.4 0.00 0.00 0.00 63 1005.2
20260505055550 18 259 1.6 4.8 0.00 0.00 0.00 63 1005.2
20260505055047 18 0 0.0 9.7 0.00 0.00 0.00 63 1005.1
20260505054600 18 258 1.6 9.7 0.00 0.00 0.00 63 1005.0
20260505054048 18 241 0.0 6.4 0.00 0.00 0.00 62 1004.9
20260505053548 18 352 0.0 6.4 0.00 0.00 0.00 61 1004.9
20260505053059 19 252 0.0 4.8 0.00 0.00 0.00 62 1004.9
20260505052549 19 279 1.6 9.7 0.00 0.00 0.00 62 1004.8
20260505052047 19 317 1.6 9.7 0.00 0.00 0.00 61 1004.8
20260505051554 18 319 1.6 8.0 0.00 0.00 0.00 62 1004.7
20260505051048 18 218 0.0 6.4 0.00 0.00 0.00 62 1004.9
20260505050548 19 257 0.0 4.8 0.00 0.00 0.00 62 1005.1
20260505041605 19 352 0.0 4.8 0.00 0.00 0.00 62 1005.5
20260505041048 19 20 0.0 4.8 0.00 0.00 0.00 63 1005.5
20260505040548 19 23 1.6 3.2 0.00 0.00 0.00 62 1005.5
20260505040103 19 0 0.0 9.7 0.00 0.00 0.00 62 1005.5
20260505035549 19 273 0.0 9.7 0.00 0.00 0.00 62 1005.6
20260505035052 19 216 0.0 3.2 0.00 0.00 0.00 62 1005.7
20260505034556 19 0 0.0 6.4 0.00 0.00 0.00 62 1005.6
20260505034049 20 0 0.0 8.0 0.00 0.00 0.00 62 1005.6
20260505033549 20 277 1.6 9.7 0.00 0.00 0.00 62 1005.5
20260505033100 20 0 1.6 9.7 0.00 0.00 0.00 62 1005.6
20260505032549 20 273 0.0 4.8 0.00 0.00 0.00 62 1005.5
20260505032051 20 240 0.0 8.0 0.00 0.00 0.00 62 1005.5
20260505031556 20 161 0.0 8.0 0.00 0.00 0.00 62 1005.5
20260505031048 19 291 1.6 8.0 0.00 0.00 0.00 62 1005.4
20260505030553 19 0 0.0 12.9 0.00 0.00 0.00 62 1005.4
20260505030055 19 290 0.0 12.9 0.00 0.00 0.00 62 1005.3
20260505025548 19 0 1.6 12.9 0.00 0.00 0.00 63 1005.2
20260505025048 19 308 0.0 4.8 0.00 0.00 0.00 63 1005.1
20260505024553 20 0 0.0 4.8 0.00 0.00 0.00 62 1005.0
20260505024048 20 0 0.0 8.0 0.00 0.00 0.00 62 1005.0
20260505023549 20 242 1.6 8.0 0.00 0.00 0.00 62 1005.0
20260505023054 20 0 0.0 4.8 0.00 0.00 0.00 62 1004.9
20260505022549 20 0 0.0 4.8 0.00 0.00 0.00 62 1004.9
20260505022052 20 0 0.0 4.8 0.00 0.00 0.00 62 1004.9
20260505021550 20 284 0.0 4.8 0.00 0.00 0.00 62 1004.8
20260505021048 20 0 0.0 3.2 0.00 0.00 0.00 62 1004.7
20260505020549 20 337 0.0 3.2 0.00 0.00 0.00 62 1004.6
20260505020053 20 0 0.0 3.2 0.00 0.00 0.00 61 1004.6
20260505015549 20 0 0.0 1.6 0.00 0.00 0.00 61 1004.4
20260505015049 20 0 0.0 3.2 0.00 0.00 0.00 61 1004.4
20260505014553 20 0 0.0 3.2 0.00 0.00 0.00 61 1004.4
20260505014048 20 0 0.0 3.2 0.00 0.00 0.00 61 1004.4
20260505013548 20 0 0.0 4.8 0.00 0.00 0.00 60 1004.3
20260505013058 20 0 0.0 4.8 0.00 0.00 0.00 60 1004.3
20260505012548 20 214 0.0 4.8 0.00 0.00 0.00 60 1004.2
20260505012048 20 0 0.0 3.2 0.00 0.00 0.00 59 1004.3
20260505011552 21 0 0.0 4.8 0.00 0.00 0.00 59 1004.1
20260505011051 21 0 0.0 4.8 0.00 0.00 0.00 59 1004.2
20260505010549 21 206 0.0 3.2 0.00 0.00 0.00 59 1004.2
20260505005545 21 0 0.0 3.2 0.00 0.00 0.00 57 1004.2
20260505005048 21 0 0.0 1.6 0.00 0.00 0.00 57 1004.1
20260505004550 21 0 0.0 3.2 0.00 0.00 0.00 56 1004.2
20260505004051 21 0 0.0 4.8 0.00 0.00 0.00 55 1004.2
20260505003550 22 0 0.0 4.8 0.00 0.00 0.00 55 1004.0
20260505003052 22 232 0.0 4.8 0.00 0.00 0.00 54 1004.1
20260505002549 22 241 1.6 6.4 0.00 0.00 0.00 53 1004.1
20260505002050 22 227 1.6 6.4 0.00 0.00 0.00 53 1004.2
20260505001554 22 0 0.0 4.8 0.00 0.00 0.00 53 1004.2
20260505001049 22 0 0.0 4.8 0.00 0.00 0.00 52 1004.2
20260505000549 22 0 0.0 4.8 0.00 0.00 0.00 52 1004.3
20260504235549 23 252 1.6 6.4 0.00 0.00 0.00 51 1004.4
20260504235050 23 315 0.0 12.9 0.00 0.00 0.00 50 1004.6
20260504234603 23 246 1.6 12.9 0.00 0.00 0.00 50 1004.7
20260504234053 23 221 3.2 12.9 0.00 0.00 0.00 48 1004.7
20260504233549 23 267 4.8 12.9 0.00 0.00 0.00 48 1004.8
20260504233055 23 250 3.2 11.3 0.00 0.00 0.00 48 1004.8
20260504232549 23 296 0.0 16.1 0.00 0.00 0.00 48 1004.8
20260504232049 24 215 1.6 16.1 0.00 0.00 0.00 47 1004.8
20260504231553 24 277 1.6 24.1 0.00 0.00 0.00 47 1004.8
20260504231048 24 213 4.8 24.1 0.00 0.00 0.00 46 1004.8
20260504230549 24 254 6.4 24.1 0.00 0.00 0.00 46 1004.8
20260504230056 24 313 3.2 14.5 0.00 0.00 0.00 47 1004.8
20260504225549 24 285 3.2 19.3 0.00 0.00 0.00 47 1005.0
20260504225054 24 35 3.2 20.9 0.00 0.00 0.00 48 1004.9
20260504224554 23 0 4.8 20.9 0.00 0.00 0.00 47 1005.0
20260504224049 23 294 1.6 16.1 0.00 0.00 0.00 50 1005.0
20260504223549 23 319 4.8 16.1 0.00 0.00 0.00 51 1005.0
20260504223055 23 229 1.6 6.4 0.00 0.00 0.00 55 1005.2
20260504222549 23 211 1.6 6.4 0.00 0.00 0.00 54 1005.1
20260504222054 23 221 0.0 6.4 0.00 0.00 0.00 54 1005.2
20260504221552 23 262 0.0 4.8 0.00 0.00 0.00 54 1005.0
20260504221049 23 254 1.6 4.8 0.00 0.00 0.00 54 1005.0
20260504220550 23 209 0.0 4.8 0.00 0.00 0.00 54 1004.9
20260504220104 23 0 0.0 4.8 0.00 0.00 0.00 54 1005.1
20260504215552 23 0 0.0 4.8 0.00 0.00 0.00 52 1005.4
20260504215049 24 236 0.0 4.8 0.00 0.00 0.00 51 1005.5
20260504214604 24 230 0.0 6.4 0.00 0.00 0.00 53 1005.6
20260504214048 24 0 1.6 8.0 0.00 0.00 0.00 49 1005.8
20260504213547 24 317 1.6 8.0 0.00 0.00 0.00 50 1005.7
20260504213112 24 248 0.0 6.4 0.00 0.00 0.00 48 1005.7
20260504212552 24 0 0.0 6.4 0.00 0.00 0.00 50 1005.8
20260504212048 24 287 1.6 12.9 0.00 0.00 0.00 49 1005.9
20260504211600 24 0 1.6 12.9 0.00 0.00 0.00 48 1005.9
20260504211048 24 241 0.0 11.3 0.00 0.00 0.00 49 1005.9
20260504210551 24 0 0.0 11.3 0.00 0.00 0.00 52 1005.9
20260504210105 24 57 1.6 11.3 0.00 0.00 0.00 53 1006.0
20260504205549 23 304 3.2 9.7 0.00 0.00 0.00 52 1006.1
20260504205048 23 221 1.6 9.7 0.00 0.00 0.00 53 1006.1
20260504204605 23 260 1.6 6.4 0.00 0.00 0.00 54 1006.1
20260504204050 23 0 1.6 8.0 0.00 0.00 0.00 53 1006.1
20260504203548 23 226 1.6 11.3 0.00 0.00 0.00 51 1006.3
20260504203058 23 242 4.8 11.3 0.00 0.00 0.00 52 1006.5
20260504202548 23 327 3.2 8.0 0.00 0.00 0.00 52 1006.5
20260504202048 23 260 0.0 8.0 0.00 0.00 0.00 54 1006.4
20260504201559 23 0 1.6 12.9 0.00 0.00 0.00 55 1006.7
20260504201047 23 0 3.2 12.9 0.00 0.00 0.00 52 1006.7
20260504200547 23 252 3.2 12.9 0.00 0.00 0.00 51 1006.7
20260504200054 23 269 0.0 12.9 0.00 0.00 0.00 57 1006.7
20260504195548 23 167 3.2 12.9 0.00 0.00 0.00 54 1006.7
20260504195048 23 297 1.6 9.7 0.00 0.00 0.00 56 1006.7
20260504194558 22 252 1.6 14.5 0.00 0.00 0.00 59 1006.9
20260504194048 22 211 1.6 14.5 0.00 0.00 0.00 56 1007.1
20260504193548 22 202 4.8 14.5 0.00 0.00 0.00 59 1007.2
20260504193103 22 229 1.6 8.0 0.00 0.00 0.00 60 1007.2
20260504192548 22 0 3.2 11.3 0.00 0.00 0.00 63 1007.4
20260504192050 21 263 1.6 11.3 0.00 0.00 0.00 61 1007.5
20260504191554 21 34 1.6 9.7 0.00 0.00 0.00 62 1007.3
20260504191047 21 199 3.2 9.7 0.00 0.00 0.00 61 1007.7
20260504190547 21 219 3.2 8.0 0.00 0.00 0.00 63 1007.7
20260504190106 20 250 1.6 9.7 0.00 0.00 0.00 63 1007.6
20260504185547 20 208 3.2 9.7 0.00 0.00 0.00 63 1007.8
20260504185048 20 204 1.6 6.4 0.00 0.00 0.00 63 1008.1
20260504184550 20 0 1.6 9.7 0.00 0.00 0.00 63 1008.0
20260504184048 20 242 3.2 9.7 0.00 0.00 0.00 63 1007.9
20260504183547 20 191 1.6 11.3 0.00 0.00 0.00 62 1007.9
20260504183100 20 29 3.2 14.5 0.00 0.00 0.00 61 1007.9
20260504182548 20 304 3.2 14.5 0.00 0.00 0.00 61 1007.9
20260504182048 20 232 1.6 11.3 0.00 0.00 0.00 62 1007.7
20260504181552 21 204 1.6 11.3 0.00 0.00 0.00 61 1007.5
20260504181048 21 238 3.2 11.3 0.00 0.00 0.00 59 1007.5
20260504180548 21 265 1.6 9.7 0.00 0.00 0.00 59 1007.3
20260504180132 21 205 1.6 9.7 0.00 0.00 0.00 61 1007.2
20260504175547 21 0 3.2 17.7 0.00 0.00 0.00 59 1007.2
20260504175051 21 260 1.6 17.7 0.00 0.00 0.00 61 1007.2
20260504174556 21 229 3.2 17.7 0.00 0.00 0.00 58 1007.2
20260504174051 21 286 1.6 8.0 0.00 0.00 0.00 62 1007.0
20260504173551 21 211 1.6 11.3 0.00 0.00 0.00 61 1007.2
20260504173054 20 202 1.6 11.3 0.00 0.00 0.00 62 1007.2
20260504172550 20 271 1.6 9.7 0.00 0.00 0.00 65 1007.4
20260504172051 20 248 1.6 9.7 0.00 0.00 0.00 66 1007.4
20260504171554 20 288 3.2 6.4 0.00 0.00 0.00 65 1007.2
20260504171049 20 86 0.0 6.4 0.00 0.00 0.00 65 1006.8
20260504170548 20 5 1.6 9.7 0.00 0.00 0.00 65 1006.9
20260504151049 16 0 1.6 4.8 0.00 0.00 0.00 69 1008.1
20260504150549 16 0 0.0 6.4 0.00 0.00 0.00 72 1008.2
20260504141048 15 45 0.0 4.8 0.00 0.00 0.00 70 1008.2
20260504140549 15 0 0.0 6.4 0.00 0.00 0.00 72 1008.2
20260504130549 12 0 1.6 4.8 0.00 0.00 0.00 73 1008.6
20260504120104 11 309 1.6 4.8 0.00 0.00 0.00 74 1008.9
20260504110547 10 296 0.0 3.2 0.00 0.00 0.00 73 1008.6
20260504100547 10 0 0.0 3.2 0.00 0.00 0.00 73 1008.8
20260504100115 10 0 0.0 3.2 0.00 0.00 0.00 73 1008.8
20260504081552 11 0 0.0 3.2 0.00 0.00 0.00 67 1009.5
20260504081048 11 292 0.0 1.6 0.00 0.00 0.00 67 1009.4
20260504080548 11 0 0.0 4.8 0.00 0.00 0.00 66 1009.5